Weather Roundup
Issued by NWS

Home | Current Version | Previous Version | Graphics & Text | Print | Product List | Glossary Off
Versions: 1 2 3 4 5 6 7 8 9 10 11 12 13 14 15 16 17 18 19 20 21 22 23 24 25 26 27 28 29 30 31 32 33 34 35 36 37 38 39 40 41 42 43 44 45 46 47 48 49 50

000
NZUS93 KARX 150159
HRRWXR

CURRENT HOURLY OBSERVATIONS ACROSS
MUCH OF THE UPPER MISSISSIPPI VALLEY
NATIONAL WEATHER SERVICE LA CROSSE WI
900 PM CDT SUN SEP 14 2014


...SOUTHEAST MINNESOTA...


CITY           SKY/WX    TMP DP  RH WIND       PRES   REMARKS
ROCHESTER      CLOUDY    56  45  66 NW5       30.14R
ROCHESTER/MAYO MOCLDY    58  42  56 W3        30.14R
WINONA         CLOUDY    55  50  82 NW3       30.12R
AUSTIN         CLOUDY    55  46  71 N3        30.13R
ALBERT LEA     CLOUDY    55  46  71 CALM      30.14R
DODGE CENTER   CLOUDY    54  48  82 N5        30.13R
PRESTON        CLOUDY    57  54  88 NW5       30.14R
OWATONNA       CLOUDY    54  48  82 CALM      30.13S
FARIBAULT      CLOUDY    57  45  62 CALM      30.14R
$$

...ELSEWHERE IN MINNESOTA...


CITY           SKY/WX    TMP DP  RH WIND       PRES   REMARKS
MINNEAPOLIS    MOCLDY    56  43  61 W7        30.13R
INTNL FALLS    CLOUDY    47  45  93 W5        30.06R
DULUTH         PTCLDY    47  41  80 W6        30.09R
RED WING       CLOUDY    55  45  67 CALM      30.11R
REDWOOD FALLS  LGT RAIN  52  46  80 W8        30.15R
MANKATO        CLOUDY    55  43  62 N8        30.14R
WORTHINGTON    CLOUDY    52  45  76 N5        30.16R
FAIRMONT       CLOUDY    54  43  66 N5        30.14R
$$

...SOUTHWEST WISCONSIN...


CITY           SKY/WX    TMP DP  RH WIND       PRES   REMARKS
LA CROSSE      MOCLDY    62  50  64 CALM      30.11R
PRAIRIE DU CHI PTCLDY    55  50  83 CALM      30.13R
BOSCOBEL       PTCLDY    56  50  80 CALM      30.14R
LONE ROCK      NOT AVBL
PLATTEVILLE    NOT AVBL
FORT MC COY    CLOUDY    59  50  72 CALM      30.12R
VIROQUA        MOCLDY    57  50  76 SW7       30.12R
WIS DELLS      MOCLDY    57  46  68 SW7       30.12R
$$

...ELSEWHERE IN WISCONSIN...


CITY           SKY/WX    TMP DP  RH WIND       PRES   REMARKS
MILWAUKEE      MOCLDY    57  45  64 SW6       30.16R
MADISON        MOCLDY    60  47  61 S7        30.14S
GREEN BAY      MOCLDY    57  49  74 SW6       30.09R
EAU CLAIRE     CLOUDY    54  41  61 NW5       30.10S
BLACK RVR FLS  CLOUDY    55  51  88 CALM      30.11R
MEDFORD        MOCLDY    51  42  71 W3        30.10R
WAUSAU         MOCLDY    55  44  66 W5        30.09R
WIS RAPIDS     MOCLDY    59  50  72 CALM      30.11R
MARSHFIELD     MOCLDY    54  43  66 NW12      30.10R
RICE LAKE      MOCLDY    50  46  84 CALM      30.13R
$$

...NORTHEAST IOWA...


CITY           SKY/WX    TMP DP  RH WIND       PRES   REMARKS
WATERLOO       PTCLDY    56  50  80 SW3       30.13R
DUBUQUE        PTCLDY    52  48  86 CALM      30.16R
DECORAH        PTCLDY    55  50  82 CALM      30.12R
MASON CITY     MOCLDY    52  51  97 CALM      30.14R
CHARLES CITY   CLOUDY    57  54  88 CALM      30.14R
OELWEIN        MOCLDY    55  50  82 S8        30.15R
$$

...ELSEWHERE IN IOWA...


CITY           SKY/WX    TMP DP  RH WIND       PRES   REMARKS
DES MOINES     MOCLDY    65  51  60 SE6       30.13R
IOWA CITY      MOCLDY    58  52  80 CALM      30.17R
FORT DODGE     MOCLDY    55  52  88 CALM      30.13R
MARSHALLTOWN   PTCLDY    56  50  80 SE5       30.13R
CEDAR RAPIDS   PTCLDY    55  50  83 S3        30.15R
$$

...NORTHERN ILLINOIS...


CITY           SKY/WX    TMP DP  RH WIND       PRES   REMARKS
CHICAGO-OHARE  PTCLDY    55  47  74 CALM      30.17S
DUPAGE         CLEAR     52  47  83 CALM      30.17S
CHICAGO-MIDWAY PTCLDY    62  44  51 S3        30.18R
MOLINE         PTCLDY    55  51  86 CALM      30.16S
ROCKFORD       PTCLDY    54  48  80 CALM      30.20R
STERLING       CLEAR     54  46  76 CALM      30.16S
PEORIA         CLEAR     56  49  77 CALM      30.18R
$$

NOTE: "FAIR" INDICATES FEW OR NO CLOUDS BELOW 12,000 FEET WITH NO
SIGNIFICANT WEATHER AND/OR OBSTRUCTIONS TO VISIBILITY. WIND
SPEEDS ARE IN MILES-PER-HOUR.



USA.gov is the U.S. government's official web portal to all federal, state and local government web resources and services.